Location: Presov
(49.0000°N, 21.2500°E)
Time: 19:42:19
(UTC+02:00)

ISS - Pass Details

Date: 02 April 2019
Orbit: 408 x 410 km, 51.6° (Epoch: 26 April)

Event Time Altitude Azimuth Distance (km) Brightness Sun altitude
Rises 20:56:07 0° 290° (WNW) 2,339 1.7 -17.6°
Reaches altitude 10° 20:58:13 10° 288° (WNW) 1,476 0.2 -17.9°
Maximum altitude 21:01:30 66° 206° (SSW) 449 -3.7 -18.4°
Enters shadow 21:01:49 61° 168° (SSE) 468 -3.8 -18.4°
